sat.trackr.live / text

‹ back to catalog

STARLINK-36228

NORAD 67096 · 2025-298X

PAYLOAD ACTIVE UNKNOWN

§ Identity

Operator
Country
US
Launch date
2025-12-14
Launch site
AFWTR
Launch vehicle
Mass (kg)
RCS (m²)

Purposes: comms

External: N2YO · Heavens-Above · Gunter

§ Orbital elements

Epoch: 2026-09-20T05:04:52.480128Z

Period
96.11 min
Inclination
69.9995°
Eccentricity
0.0004042
Mean motion
14.98341488 rev/d
Perigee alt
569.2 km
Apogee alt
574.8 km
Semi-major
6,950.2 km
B*
2.5154e-4
RAAN
244.0387°
Arg perigee
267.6449°
Mean anomaly
92.4247°
Rev number
4,235

§ Raw data

STARLINK-362281 67096U 25298X   26263.21171852  .00002911  00000+0  25154-3 0  99922 67096  69.9995 244.0387 0004042 267.6449  92.4247 14.98341488 42355

JSON: /api/v1/satellites/67096 · /tle

For live sub-satellite position, see the globe view (requires WebGL).

§ Visibility from observer

Set your observer location to see the next 7 days of passes ≥ 10°. The values pass through the URL so the page stays shareable.

No JS? Fill the form by hand. The geolocation button needs JavaScript.